Location: Barcelona
(41.3830°N, 2.1830°E)
Time: 15:24:18
(UTC+02:00)

ISS - Pass Details

Date: 12 September 2019
Orbit: 411 x 421 km, 51.6° (Epoch: 18 September)

Event Time Altitude Azimuth Distance (km) Brightness Sun altitude
Exits shadow 06:16:52 - 313° (NW) 1,594 -1.1 -13.9°
Reaches altitude 10° 06:17:08 10° 314° (NW) 1,490 -1.2 -13.8°
Maximum altitude 06:20:23 49° 31° (NNE) 547 -2.9 -13.2°
Drops below altitude 10° 06:23:39 10° 107° (ESE) 1,489 -0.1 -12.7°
Sets 06:25:47 0° 113° (ESE) 2,351 0.9 -12.3°
